This is the latest recevied weather packets stored in our database for station/object N3EYQ. If no packets are shown the sender has not sent any weather packets the latest 10 day(s).
| Time | Temp. | Humidity | Pressure | Rain* | Wind** | Luminosity | Snow |
|---|---|---|---|---|---|---|---|
| 1777678177 | 15° C | 45% | 1011 hPa | 0 mm | - | - | - |
| 1777677578 | 15° C | 44% | 1011 hPa | 0 mm | - | - | - |
| 1777676977 | 15.56° C | 43% | 1011 hPa | 0 mm | - | - | - |
| 1777676377 | 15.56° C | 41% | 1010.6 hPa | 0 mm | - | - | - |
| 1777675777 | 16.11° C | 40% | 1010.6 hPa | 0 mm | - | - | - |
| 1777675177 | 16.11° C | 39% | 1010.3 hPa | 0 mm | - | - | - |
| 1777674578 | 16.67° C | 39% | 1010.3 hPa | 0 mm | - | - | - |
| 1777673977 | 16.67° C | 38% | 1010.3 hPa | 0 mm | - | - | - |
| 1777673376 | 16.67° C | 37% | 1010.3 hPa | 0 mm | - | - | - |
| 1777672777 | 17.22° C | 36% | 1010.3 hPa | 0 mm | - | - | - |
| 1777672176 | 17.22° C | 37% | 1010 hPa | 0 mm | - | - | - |
| 1777671576 | 17.22° C | 36% | 1010 hPa | 0 mm | - | - | - |
| 1777670976 | 17.22° C | 36% | 1010 hPa | 0 mm | - | - | - |
| 1777670376 | 17.22° C | 36% | 1009.6 hPa | 0 mm | - | - | - |
| 1777669776 | 17.78° C | 34% | 1009.6 hPa | 0 mm | - | - | - |
| 1777669176 | 17.78° C | 34% | 1009.6 hPa | 0 mm | - | - | - |
| 1777668575 | 17.78° C | 34% | 1009.6 hPa | 0 mm | - | - | - |
| 1777667975 | 17.78° C | 34% | 1009.6 hPa | 0 mm | - | - | - |
| 1777667375 | 17.78° C | 34% | 1009.6 hPa | 0 mm | - | - | - |
| 1777666775 | 18.33° C | 33% | 1009.6 hPa | 0 mm | - | - | - |
| 1777666176 | 18.89° C | 34% | 1009.6 hPa | 0 mm | - | - | - |
| 1777665575 | 18.33° C | 34% | 1009.6 hPa | 0 mm | - | - | - |
| 1777664975 | 17.78° C | 34% | 1009.6 hPa | 0 mm | - | - | - |
| 1777664375 | 17.78° C | 31% | 1009.6 hPa | 0 mm | - | - | - |
| 1777663774 | 17.78° C | 34% | 1010 hPa | 0 mm | - | - | - |
* Rain latest hour (hover to see other rain measurements)
** Current wind speed in m/s (hover to see current wind gust speed)